Kailua, HI (96734)

3:42 PM HST on August 29, 2015 (GMT -1000)
Kailua Beach | | Change Station
CLOSE
Current Station
Personal Weather Station
Location: Kailua, HI
Elevation: 10 ft
Nearby Weather Stations

Elev 10 ft 21.40 °N, 157.73 °W | Updated 10 minutes ago

Mostly Cloudy
Mostly Cloudy
83.8 °F
Feels Like 95 °F
N
4.0
Wind Variable Wind from ENE
Gusts 5.0 mph

Today
High -- | Low -- °F
--% Chance of Precip.
Yesterday
High -- | Low -- °F
Precip. -- in
6:13 AM 6:49 PM
Full, 100% visible
Pressure 29.84 in
Visibility -9999.0 miles
Clouds Scattered Clouds 2600 ft
Mostly Cloudy 7000 ft
Heat Index 95 °F
Dew Point 78 °F
Humidity 83%
Rainfall 0.00 in
Snow Depth Not available.
UV 3 out of 12
Pollen Not available.
Air Quality Not available.
Flu Activity Not available.
SPECI PHNG 300128Z AUTO 06008KT SCT026 BKN070 29/24 A2984 RMK AO2 T02940239 $
Pressure 29.84 in
Visibility -9999.0 miles
Clouds Scattered Clouds 2600 ft
Mostly Cloudy 7000 ft
Heat Index 95 °F
Dew Point 78 °F
Humidity 83%
Rainfall 0.00 in
Snow Depth Not available.
UV 3 out of 12
Pollen Not available.
Air Quality Not available.
Flu Activity Not available.
SPECI PHNG 300128Z AUTO 06008KT SCT026 BKN070 29/24 A2984 RMK AO2 T02940239 $
The busy hurricane season continues as Hurricane Ignacio may threaten The Big Island Monday. Ignacio is expected to strengthen into a Category 2 hurricane later today, before possibly weakening to a Category 1 storm Monday. The most likely scenario is that storm will pass to the north of Hawaii, there is enough difference is guidance to suggest that residents should prepare for the storm.

10-Day Weather Forecast

×

Almanac

Astronomy

Aug. 29, 2015 Rise Set
Actual Time
Civil Twilight
Nautical Twilight
Astronomical Twilight
Moon
Length of Visible Light
Length of Day
Tomorrow will be .
, % of the Moon is Illuminated

Today's Extremes

State Highs State Lows

Community

WunderPhotos

Upload Photos

1,850,826 photos uploaded!

WunderBlogs® & News

Nearby

Air Quality

  Air Quality AQ Index Pollutant
Not available.

Snow Depth

Station Depth Elevation

Earthquake Activity

City Distance Mag. Time & Date
Minimum magnitude displayed is 2.5.

Coastal Water Temperatures

Place Temperature

Stations

Nearby Weather Stations

Station Location Temp. Windchill Dew Point Humidity Wind Precip. Elev Updated Type